TimeCDT,TemperatureF,Dew PointF,Humidity,Sea Level PressureIn,VisibilityMPH,Wind Direction,Wind SpeedMPH,Gust SpeedMPH,PrecipitationIn,Events,Conditions,WindDirDegrees,DateUTC
12:53 AM,73.0,72.0,96,30.00,10.0,East,4.6,-,N/A,,Clear,80,2013-07-15 05:53:00
1:53 AM,73.0,72.0,96,29.99,10.0,ENE,5.8,-,N/A,,Clear,70,2013-07-15 06:53:00
2:53 AM,73.0,72.0,96,29.99,10.0,ENE,4.6,-,N/A,,Clear,70,2013-07-15 07:53:00
3:53 AM,72.0,72.0,100,29.99,10.0,ENE,4.6,-,N/A,,Clear,60,2013-07-15 08:53:00
4:53 AM,72.0,71.1,97,30.00,10.0,ENE,5.8,-,N/A,,Clear,70,2013-07-15 09:53:00
5:53 AM,72.0,71.1,97,30.01,10.0,ENE,5.8,-,N/A,,Scattered Clouds,70,2013-07-15 10:53:00
6:53 AM,73.0,72.0,96,30.04,10.0,Calm,Calm,-,N/A,,Clear,0,2013-07-15 11:53:00
7:53 AM,75.9,73.0,91,30.06,10.0,ENE,5.8,-,N/A,,Clear,70,2013-07-15 12:53:00
8:53 AM,80.1,75.0,85,30.07,10.0,ENE,6.9,-,N/A,,Scattered Clouds,70,2013-07-15 13:53:00
9:53 AM,84.0,75.0,74,30.08,10.0,East,9.2,-,N/A,,Mostly Cloudy,80,2013-07-15 14:53:00
10:53 AM,84.9,73.9,69,30.08,10.0,East,10.4,-,N/A,,Mostly Cloudy,80,2013-07-15 15:53:00
11:53 AM,87.1,73.9,65,30.07,10.0,East,12.7,-,N/A,,Mostly Cloudy,90,2013-07-15 16:53:00
12:53 PM,86.0,73.9,67,30.08,10.0,East,10.4,-,N/A,,Mostly Cloudy,90,2013-07-15 17:53:00
1:18 PM,84.2,73.4,70,30.08,10.0,East,10.4,-,N/A,Thunderstorm,Thunderstorm,100,2013-07-15 18:18:00
1:53 PM,80.1,71.1,74,30.09,10.0,SW,11.5,-,N/A,,Mostly Cloudy,230,2013-07-15 18:53:00
2:18 PM,78.8,71.6,78,30.09,10.0,West,8.1,-,N/A,Thunderstorm,Thunderstorm,280,2013-07-15 19:18:00
2:26 PM,75.2,71.6,89,30.12,1.8,NE,15.0,19.6,0.06,Rain-Thunderstorm,Heavy Thunderstorms and Rain,40,2013-07-15 19:26:00
2:35 PM,71.6,69.8,94,30.12,0.5,NNW,8.1,-,0.44,Fog-Rain-Thunderstorm,Heavy Thunderstorms and Rain,330,2013-07-15 19:35:00
2:48 PM,71.6,69.8,94,30.09,7.0,North,3.5,-,N/A,Rain-Thunderstorm,Thunderstorms and Rain,10,2013-07-15 19:48:00
2:53 PM,72.0,70.0,93,30.09,8.0,NE,3.5,-,0.81,Rain-Thunderstorm,Thunderstorms and Rain,40,2013-07-15 19:53:00
3:21 PM,75.2,71.6,89,30.07,10.0,Calm,Calm,-,0.02,Rain,Light Rain,0,2013-07-15 20:21:00
3:53 PM,78.1,73.0,84,30.07,10.0,SE,5.8,-,0.02,,Partly Cloudy,130,2013-07-15 20:53:00
4:53 PM,75.9,73.9,94,30.06,10.0,ENE,5.8,-,0.03,Rain,Light Rain,70,2013-07-15 21:53:00
5:53 PM,75.0,73.9,96,30.06,10.0,East,5.8,-,0.01,Rain,Light Rain,80,2013-07-15 22:53:00
6:53 PM,75.0,73.0,94,30.06,10.0,ESE,4.6,-,0.04,Rain,Light Rain,120,2013-07-15 23:53:00
7:53 PM,75.0,73.0,94,30.08,10.0,ENE,3.5,-,0.01,,Clear,70,2013-07-16 00:53:00
8:53 PM,73.9,72.0,93,30.08,10.0,North,-9999.0,-,0.00,,Clear,0,2013-07-16 01:53:00
9:53 PM,73.9,72.0,93,30.12,10.0,Calm,Calm,-,N/A,,Partly Cloudy,0,2013-07-16 02:53:00
10:53 PM,73.0,72.0,96,30.11,10.0,NE,3.5,-,0.00,,Clear,40,2013-07-16 03:53:00
11:53 PM,73.0,72.0,96,30.10,10.0,NE,4.6,-,N/A,,Clear,40,2013-07-16 04:53:00